Location: Bad Dürkheim
(49.4618°N, 8.1724°E)
Time: 04:55:57
(UTC+00:00)

Cosmos 2228 Rocket - Pass Details

Date: 14 June 2025
Orbit: 612 x 647 km, 82.5° (Epoch: 12 July)

Event Time Altitude Azimuth Distance (km) Brightness Sun altitude
Exits shadow 22:54:33 24° 211° (SSW) 1,301 4.3 -16.9°
Maximum altitude 22:57:03 58° 282° (WNW) 736 3.5 -16.9°
Drops below altitude 10° 23:01:27 10° 3° (N) 2,009 7.0 -17.0°
Sets 23:03:43 0° 7° (N) 2,915 8.1 -17.0°
